DMSP 5D-2 F13 DEB, 40415

Orbit data source: Space-Track

DMSP 5D-2 F13 DEB, 40415 is space debris in SSO originally from a launch on Fri, 24 Mar 1995 UTC launched from the Air Force Western Test Range (AFWTR). Debris objects in space refer to the collection of defunct objects orbiting the Earth. Examples of debris include non-operational satellites, rocket bodies, and fragments generated from explosions, collisions, or faulty payload assembly.

Loading next visibility...
Identifier
40415, 1995-015AC
Orbit
SSO
Last TLE update
23 hours ago
Origin
Manufacturer
Unknown
Mission
Spacecraft
Bus & Motor
Unknown
Mass
Unknown
Launch date (UTC)
1995-03-24 (30 years ago)
Launch vehicle
Unknown
Launch site
Air Force Western Test Range (AFWTR)
Object type
Payload
Rocket body
Debris
Shape & HBR
Unknown
Radar Cross Section
Small (<0.1 m²)

Expand to show TLE details & history

TLE from 23 hours ago
0 DMSP 5D-2 F13 DEB
1 40415U 95015AC  25185.99898907  .00001629  00000-0  67861-3 0  9993
2 40415  98.7460 208.0992 0003847 262.8586  97.2157 14.27681886536476
Epoch: 2025-07-04T23:58Z
TLE epoch observation values (Epoch: 2025-07-04T23:58:32.655Z)
Latitude
-0.00006°
Longitude
-74.78019°
Altitude
802.762 km
Speed
7.452 km/s
True Right ascension
13h 52m 23s
True Declination
0° 00' 00"
Sunlit
Object was in daylight at epoch
Visualization orbit readout
Latitude
32.3763°
Longitude
111.728°
Altitude
804.714 km
Speed
7.453 km/s
Apparent Right ascension
00h 36m 39s
Apparent Declination
-1° 27' 10"
Sunlit
Object is in daylight
Visualization observer readout
Local Sidereal Time
10:27:58
Azimuth
314.526° NW
Elevation
-41.704°
Doppler factor
1
Orbital elements
Apogee altitude
799.4 km
Perigee altitude
793.88 km
Semi-major axis
7,174.777 km
Eccentricity
0.00038
Inclination
98.746°
RAAN
208.0992°
Arg. of periapsis
262.8586°
True anomaly
Unknown
Mean anomaly
97.2157°
Eccentric anomaly
Unknown
Mean motion
3.57133 °/min
Orbital period
100.8 mins
BSTAR
0.00067861
Loading maneuver chart data...
Loading SW <> Apogee altitude chart data...

DMSP 5D-2 F13 DEB Visibility forecast

Observer location: undefined°, undefined°

Span
Click to sort rows by Start time (UTC) header in descending order
Start Az.
Max El. time (UTC)
Max El. Az.
Max El.
End time (UTC)
End Az.
10 mins2025-07-06 01:18:46.490Z159.954° S2025-07-06 01:23:46.490Z71.295° E44.454°2025-07-06 01:28:46.490Z349.265° N
7 mins2025-07-06 13:35:46.490Z51.765° ENE2025-07-06 13:38:46.490Z104.747° ESE26.284°2025-07-06 13:42:46.490Z156.122° SSE
7 mins2025-07-06 15:14:46.490Z344.655° N2025-07-06 15:17:46.490Z297.085° NW28.202°2025-07-06 15:21:46.490Z235.32° WSW
|